Weather History for Hinckley, MN

Change the Weather History Date:

Sunday, December 9, 2012

  Actual Average (KJMR) Record (KJMR)
Temperature  
Mean Temperature 24 °F -  
Max Temperature 30 °F 25 °F 59 °F (1939)
Min Temperature 15 °F 6 °F -18 °F (1978)
Degree Days  
Heating Degree Days 42    
Moisture  
Dew Point 24 °F    
Average Humidity 91    
Maximum Humidity 100    
Minimum Humidity 79    
Precipitation  
Precipitation 0.05 in - - ()
Sea Level Pressure  
Sea Level Pressure 29.97 in    
Wind  
Wind Speed 8 mph (NE)    
Max Wind Speed 18 mph    
Max Gust Speed 24 mph    
Visibility 4 miles    
Events Snow    
Averages and records for this station are not official NWS values.
T = Trace of Precipitation, MM = Missing Value Source: NWS Daily Summary

Daily Weather History Graph

Daily Weather History Graph

Search for Another Location

Airport:

Trip Planner

Search our weather history database for the weather conditions in past years. The results will help you decide how hot, cold, wet, or windy it might be!

Date:

Astronomy

Dec. 09, 2012 Rise Set
Actual Time 7:42 AM CST 4:26 PM CST
Civil Twilight 7:07 AM CST 5:00 PM CST
Nautical Twilight 6:29 AM CST 5:38 PM CST
Astronomical Twilight 5:53 AM CST 6:14 PM CST
Moon 3:05 AM CST (12/9) 1:42 PM CST (12/9)
Length of Visible Light 9h 52m
Length of Day
8h 43m
Waning Crescent, 18% of the Moon is Illuminated
Dec 9
Waning Crescent
Dec 13
New
Dec 19
First Quarter
Dec 28
Full
Jan 4
Last Quarter

Hourly Weather History & Observations

Time (CST) Temp. Windchill Dew Point Humidity Pressure Visibility Wind Dir Wind Speed Gust Speed Precip Events Conditions
12:15 AM 28.4 °F 21.2 °F 23.0 °F 80% 30.06 in 10.0 mi East 6.9 mph - N/A   Overcast
12:35 AM 28.4 °F 21.2 °F 23.0 °F 80% 30.05 in 10.0 mi East 6.9 mph - N/A   Overcast
12:55 AM 28.4 °F 23.3 °F 23.0 °F 80% 30.05 in 10.0 mi East 4.6 mph - N/A   Overcast
1:15 AM 28.4 °F 22.2 °F 23.0 °F 80% 30.05 in 7.0 mi East 5.8 mph - N/A Snow Light Snow
1:35 AM 28.4 °F 23.3 °F 23.0 °F 80% 30.04 in 4.0 mi East 4.6 mph - N/A Snow Light Snow
1:55 AM 28.4 °F 23.3 °F 24.8 °F 86% 30.04 in 3.0 mi East 4.6 mph - N/A Snow Light Snow
2:15 AM 28.4 °F 23.3 °F 24.8 °F 86% 30.04 in 3.0 mi ENE 4.6 mph - N/A Snow Light Snow
2:35 AM 26.6 °F 21.2 °F 24.8 °F 93% 30.04 in 3.0 mi ENE 4.6 mph - N/A Snow Light Snow
2:55 AM 26.6 °F 20.0 °F 26.6 °F 100% 30.03 in 2.0 mi ENE 5.8 mph - N/A Snow Light Snow
3:15 AM 26.6 °F 19.1 °F 26.6 °F 100% 30.03 in 1.2 mi ENE 6.9 mph - N/A Snow Light Snow
3:35 AM 26.6 °F 20.0 °F 26.6 °F 100% 30.03 in 1.5 mi East 5.8 mph - N/A Snow Light Snow
3:55 AM 26.6 °F 20.0 °F 26.6 °F 100% 30.01 in 1.8 mi ENE 5.8 mph - N/A Snow Light Snow
4:15 AM 26.6 °F 19.1 °F 26.6 °F 100% 30.01 in 2.5 mi ENE 6.9 mph - N/A Snow Light Snow
4:35 AM 26.6 °F 19.1 °F 26.6 °F 100% 30.00 in 1.8 mi East 6.9 mph - N/A Snow Light Snow
4:55 AM 28.4 °F 22.2 °F 26.6 °F 93% 30.00 in 1.8 mi ENE 5.8 mph - N/A Snow Light Snow
5:15 AM 28.4 °F 21.2 °F 26.6 °F 93% 30.01 in 1.5 mi East 6.9 mph - 0.01 in Snow Light Snow
5:35 AM 28.4 °F 21.2 °F 26.6 °F 93% 30.01 in 1.8 mi ENE 6.9 mph - 0.01 in Snow Light Snow
5:55 AM 28.4 °F 20.4 °F 26.6 °F 93% 30.01 in 2.0 mi East 8.1 mph - 0.01 in Snow Light Snow
6:15 AM 28.4 °F 20.4 °F 26.6 °F 93% 30.01 in 1.2 mi ENE 8.1 mph - N/A Snow Light Snow
6:35 AM 28.4 °F 19.7 °F 26.6 °F 93% 30.01 in 1.2 mi East 9.2 mph - N/A Snow Light Snow
6:55 AM 28.4 °F 19.7 °F 26.6 °F 93% 30.00 in 1.2 mi ENE 9.2 mph - N/A Snow Light Snow
7:15 AM 28.4 °F 21.2 °F 26.6 °F 93% 30.00 in 1.8 mi ENE 6.9 mph - N/A Snow Light Snow
7:35 AM 28.4 °F 19.7 °F 26.6 °F 93% 30.00 in 1.8 mi ENE 9.2 mph - 0.01 in Snow Light Snow
7:55 AM 28.4 °F 21.2 °F 26.6 °F 93% 30.00 in 1.0 mi ENE 6.9 mph - 0.01 in Snow Light Snow
8:15 AM 28.4 °F 22.2 °F 26.6 °F 93% 30.00 in 1.2 mi ENE 5.8 mph - N/A Snow Light Snow
8:35 AM 28.4 °F 20.4 °F 26.6 °F 93% 30.00 in 0.8 mi ENE 8.1 mph - N/A Snow Light Snow
8:55 AM 28.4 °F 20.4 °F 26.6 °F 93% 30.00 in 0.5 mi ENE 8.1 mph - N/A Snow Snow
9:15 AM 28.4 °F 21.2 °F 26.6 °F 93% 29.99 in 0.5 mi ENE 6.9 mph - 0.01 in Snow Snow
9:35 AM 28.4 °F 19.7 °F 26.6 °F 93% 30.00 in 0.8 mi ENE 9.2 mph - 0.01 in Snow Light Snow
9:55 AM 28.4 °F 20.4 °F 26.6 °F 93% 29.99 in 0.8 mi ENE 8.1 mph - 0.01 in Snow Light Snow
10:15 AM 28.4 °F 19.7 °F 26.6 °F 93% 29.99 in 0.8 mi East 9.2 mph - N/A Snow Light Snow
10:35 AM 28.4 °F 19.7 °F 26.6 °F 93% 29.99 in 0.8 mi ENE 9.2 mph - N/A Snow Light Snow
10:55 AM 28.4 °F 20.4 °F 26.6 °F 93% 29.99 in 1.0 mi ENE 8.1 mph - N/A Snow Light Snow
11:15 AM 28.4 °F 20.4 °F 26.6 °F 93% 29.99 in 1.0 mi ENE 8.1 mph - 0.01 in Snow Light Snow
11:35 AM 28.4 °F 20.4 °F 26.6 °F 93% 29.97 in 1.0 mi ENE 8.1 mph - 0.01 in Snow Light Snow
11:55 AM 28.4 °F 21.2 °F 26.6 °F 93% 29.96 in 0.8 mi ENE 6.9 mph - 0.01 in Snow Light Snow
12:15 PM 28.4 °F 19.7 °F 26.6 °F 93% 29.95 in 0.8 mi ENE 9.2 mph - N/A Snow Light Snow
12:55 PM 28.4 °F 21.2 °F 28.4 °F 100% 29.93 in 1.0 mi ENE 6.9 mph - 0.01 in Snow Light Snow
1:15 PM 28.4 °F 20.4 °F 28.4 °F 100% 29.93 in 1.0 mi ENE 8.1 mph - N/A Snow Light Snow
1:35 PM 28.4 °F 20.4 °F 28.4 °F 100% 29.92 in 1.5 mi NE 8.1 mph - N/A Snow Light Snow
1:55 PM 30.2 °F 23.4 °F 28.4 °F 93% 29.91 in 1.8 mi NE 6.9 mph - N/A Snow Light Snow
2:15 PM 28.4 °F 20.4 °F 26.6 °F 93% 29.90 in 2.5 mi NE 8.1 mph - N/A Snow Light Snow
2:35 PM 30.2 °F 22.6 °F 26.6 °F 86% 29.90 in 3.0 mi NE 8.1 mph - N/A Snow Light Snow
2:55 PM 30.2 °F 21.9 °F 26.6 °F 86% 29.90 in 3.0 mi NE 9.2 mph - N/A Snow Light Snow
3:15 PM 30.2 °F 21.9 °F 26.6 °F 86% 29.90 in 4.0 mi NNE 9.2 mph - N/A Snow Light Snow
3:35 PM 30.2 °F 21.9 °F 26.6 °F 86% 29.90 in 7.0 mi NE 9.2 mph - N/A Snow Light Snow
3:55 PM 30.2 °F 21.9 °F 26.6 °F 86% 29.90 in 10.0 mi NNE 9.2 mph - N/A Snow Light Snow
4:15 PM 30.2 °F 21.3 °F 26.6 °F 86% 29.91 in 7.0 mi NNE 10.4 mph - N/A Snow Light Snow
4:35 PM 28.4 °F 19.1 °F 26.6 °F 93% 29.92 in 2.5 mi NNE 10.4 mph 17.3 mph N/A Snow Light Snow
4:55 PM 28.4 °F 19.1 °F 26.6 °F 93% 29.92 in 1.5 mi North 10.4 mph - N/A Snow Light Snow
5:15 PM 28.4 °F 19.1 °F 26.6 °F 93% 29.93 in 3.0 mi North 10.4 mph - N/A Snow Light Snow
5:35 PM 28.4 °F 19.1 °F 26.6 °F 93% 29.93 in 2.5 mi North 10.4 mph - N/A Snow Light Snow
5:55 PM 28.4 °F 19.1 °F 26.6 °F 93% 29.94 in 2.0 mi NNE 10.4 mph - N/A Snow Light Snow
6:15 PM 28.4 °F 20.4 °F 26.6 °F 93% 29.94 in 2.0 mi North 8.1 mph - N/A Snow Light Snow
6:35 PM 28.4 °F 21.2 °F 26.6 °F 93% 29.95 in 2.0 mi North 6.9 mph - N/A Snow Light Snow
6:55 PM 28.4 °F 18.5 °F 26.6 °F 93% 29.95 in 3.0 mi NNW 11.5 mph - N/A Snow Light Snow
7:15 PM 26.6 °F 14.7 °F 23.0 °F 86% 29.95 in 2.0 mi North 15.0 mph 19.6 mph N/A Snow Light Snow
7:35 PM 23.0 °F 10.6 °F 21.2 °F 93% 29.94 in 1.8 mi North 13.8 mph - N/A Snow Light Snow
8:15 PM 23.0 °F 10.1 °F 19.4 °F 86% 29.93 in 4.0 mi North 15.0 mph 20.7 mph N/A Snow Light Snow
8:35 PM 21.2 °F 7.3 °F 19.4 °F 93% 29.93 in 5.0 mi North 16.1 mph - N/A Snow Light Snow
8:55 PM 21.2 °F 6.4 °F 17.6 °F 86% 29.92 in 7.0 mi North 18.4 mph 23.0 mph N/A   Unknown
9:15 PM 19.4 °F 5.5 °F 17.6 °F 93% 29.92 in 10.0 mi North 15.0 mph - N/A   Unknown
9:35 PM 19.4 °F 4.5 °F 15.8 °F 86% 29.92 in 10.0 mi North 17.3 mph 24.2 mph N/A   Unknown
9:55 PM 19.4 °F 4.5 °F 14.0 °F 80% 29.92 in 10.0 mi North 17.3 mph 23.0 mph N/A   Unknown
10:15 PM 19.4 °F 6.6 °F 14.0 °F 80% 29.92 in 10.0 mi North 12.7 mph 18.4 mph N/A   Unknown
10:35 PM 17.6 °F 3.7 °F 14.0 °F 86% 29.93 in 10.0 mi North 13.8 mph 23.0 mph N/A   Unknown
10:55 PM 17.6 °F 3.7 °F 12.2 °F 79% 29.93 in 10.0 mi North 13.8 mph 24.2 mph N/A   Unknown
11:15 PM 17.6 °F 5.0 °F 12.2 °F 79% 29.93 in 10.0 mi North 11.5 mph 18.4 mph N/A   Unknown
11:35 PM 15.8 °F 0.3 °F 12.2 °F 86% 29.92 in 10.0 mi North 16.1 mph - N/A   Unknown